This is the latest recevied weather packets stored in our database for station/object KJ4RDP-13. If no packets are shown the sender has not sent any weather packets the latest 1 day(s).
| Time | Temp. | Humidity | Pressure | Rain* | Wind** | Luminosity | Snow |
|---|---|---|---|---|---|---|---|
| 1777993723 | 20° C | 52% | 1016.4 hPa | 0 mm | 2.68 m/s, 259° | 527 W/m² | - |
| 1777993420 | 20° C | 55% | 1016.4 hPa | 0 mm | 1.34 m/s, 269° | 550 W/m² | - |
| 1777993115 | 20° C | 52% | 1016.4 hPa | 0 mm | 1.79 m/s, 282° | 569 W/m² | - |
| 1777992813 | 20° C | 49% | 1016.4 hPa | 0 mm | 2.24 m/s, 287° | 652 W/m² | - |
| 1777992510 | 19.44° C | 52% | 1016.4 hPa | 0 mm | 0.89 m/s, 270° | 594 W/m² | - |
| 1777992209 | 19.44° C | 52% | 1016.4 hPa | 0 mm | 3.58 m/s, 308° | 602 W/m² | - |
| 1777991905 | 19.44° C | 59% | 1016.4 hPa | 0 mm | 1.34 m/s, 276° | 594 W/m² | - |
| 1777991603 | 19.44° C | 54% | 1016.4 hPa | 0 mm | 0.45 m/s, 234° | 551 W/m² | - |
| 1777991300 | 18.89° C | 53% | 1016.4 hPa | 0 mm | 0.89 m/s, 313° | 568 W/m² | - |
| 1777990997 | 18.89° C | 54% | 1016 hPa | 0 mm | 0 m/s | 590 W/m² | - |
| 1777990694 | 19.44° C | 54% | 1016.4 hPa | 0 mm | 3.58 m/s, 272° | 558 W/m² | - |
| 1777990386 | 19.44° C | 53% | 1016 hPa | 0 mm | 0.89 m/s, 298° | 567 W/m² | - |
| 1777990082 | 19.44° C | 57% | 1016 hPa | 0 mm | 0.89 m/s, 278° | 578 W/m² | - |
| 1777989779 | 20° C | 54% | 1016 hPa | 0 mm | 1.34 m/s, 28° | 555 W/m² | - |
| 1777989476 | 20° C | 54% | 1016.4 hPa | 0 mm | 0.89 m/s, 258° | 518 W/m² | - |
| 1777989172 | 20° C | 55% | 1016 hPa | 0 mm | 0 m/s | 497 W/m² | - |
| 1777988868 | 20° C | 57% | 1016 hPa | 0 mm | 0 m/s | 510 W/m² | - |
| 1777988566 | 18.89° C | 61% | 1016 hPa | 0 mm | 0 m/s | 491 W/m² | - |
| 1777988262 | 18.33° C | 59% | 1016 hPa | 0 mm | 0.45 m/s, 260° | 458 W/m² | - |
| 1777987959 | 18.89° C | 62% | 1015.7 hPa | 0 mm | 0 m/s | 417 W/m² | - |
| 1777987654 | 18.33° C | 70% | 1015.7 hPa | 0 mm | 0 m/s | 381 W/m² | - |
| 1777987352 | 18.33° C | 71% | 1015.7 hPa | 0 mm | 0 m/s | 361 W/m² | - |
| 1777987049 | 18.89° C | 67% | 1015.7 hPa | 0 mm | 0 m/s | 330 W/m² | - |
| 1777986746 | 18.89° C | 64% | 1016 hPa | 0 mm | 0 m/s | 329 W/m² | - |
| 1777986444 | 17.78° C | 66% | 1016 hPa | 0 mm | 0 m/s | 266 W/m² | - |
* Rain latest hour (hover to see other rain measurements)
** Current wind speed in m/s (hover to see current wind gust speed)